ASA367 KPDX-KSEA

Flight info

Callsign ASA367
Flight time 0h 24m
Altitude 16000
Route COUGA KRIEG HAWKZ8
Aircraft B38M/M-SDE1FGHILORVWXY/HB1

Departure

Time 2026-05-07 02:58
Airport Portland International Airport (KPDX)

Arrival

Time 2026-05-07 03:23
Airport Seattle–Tacoma International Airport (KSEA)
Time Latitude Longitude Altitude Speed Heading
2026-05-07 02:43 45.58893 -122.59798 35 ft 0 kts 15°
2026-05-07 02:51 45.58879 -122.59804 33 ft 3 kts 15°
2026-05-07 02:51 45.58860 -122.59811 33 ft 3 kts 15°
2026-05-07 02:51 45.58843 -122.59819 35 ft 3 kts 47°
2026-05-07 02:51 45.58837 -122.59842 34 ft 2 kts 107°
2026-05-07 02:52 45.58837 -122.59844 34 ft 0 kts 107°
2026-05-07 02:54 45.58835 -122.59837 35 ft 2 kts 116°
2026-05-07 02:54 45.58821 -122.59805 34 ft 9 kts 121°
2026-05-07 02:54 45.58767 -122.59678 37 ft 21 kts 122°
2026-05-07 02:55 45.58677 -122.59468 36 ft 27 kts 126°
2026-05-07 02:55 45.58547 -122.59227 32 ft 35 kts 127°
2026-05-07 02:55 45.58400 -122.58936 32 ft 34 kts 123°
2026-05-07 02:55 45.58282 -122.58656 33 ft 32 kts 117°
2026-05-07 02:56 45.58192 -122.58419 32 ft 21 kts 119°
2026-05-07 02:56 45.58163 -122.58373 31 ft 0 kts 155°
2026-05-07 02:56 45.58162 -122.58373 31 ft 0 kts 155°
2026-05-07 02:57 45.58157 -122.58370 31 ft 2 kts 155°
2026-05-07 02:57 45.58148 -122.58366 31 ft 1 kts 174°
2026-05-07 02:57 45.58093 -122.58400 32 ft 14 kts 230°
2026-05-07 02:57 45.58118 -122.58579 37 ft 40 kts 300°
2026-05-07 02:58 45.58392 -122.59269 32 ft 118 kts 300°
2026-05-07 02:58 45.58887 -122.60545 87 ft 170 kts 301°
2026-05-07 02:58 45.59528 -122.62172 244 ft 209 kts 301°
2026-05-07 02:58 45.60265 -122.64038 895 ft 233 kts 302°
2026-05-07 02:59 45.61104 -122.66143 2194 ft 241 kts 301°
2026-05-07 02:59 45.62075 -122.68137 3249 ft 249 kts 320°
2026-05-07 02:59 45.63679 -122.69170 4125 ft 260 kts 342°
2026-05-07 02:59 45.65277 -122.70317 5068 ft 259 kts 322°
2026-05-07 03:00 45.66963 -122.71288 6069 ft 268 kts 351°
2026-05-07 03:00 45.68835 -122.71082 7120 ft 273 kts
2026-05-07 03:00 45.70712 -122.70523 8081 ft 277 kts
2026-05-07 03:00 45.72604 -122.70190 8841 ft 279 kts 358°
2026-05-07 03:01 45.74553 -122.70120 9588 ft 281 kts 355°
2026-05-07 03:01 45.76526 -122.70058 10315 ft 285 kts 356°
2026-05-07 03:01 45.78541 -122.69913 10866 ft 296 kts 358°
2026-05-07 03:01 45.80646 -122.69743 11253 ft 311 kts 357°
2026-05-07 03:02 45.82865 -122.69587 11607 ft 326 kts 357°
2026-05-07 03:02 45.85158 -122.69433 12116 ft 334 kts 357°
2026-05-07 03:02 45.87498 -122.69268 12704 ft 340 kts 357°
2026-05-07 03:02 45.89888 -122.69097 13328 ft 345 kts 356°
2026-05-07 03:03 45.92304 -122.68927 13975 ft 349 kts 356°
2026-05-07 03:03 45.94742 -122.68757 14563 ft 352 kts 356°
2026-05-07 03:03 45.97202 -122.68585 15169 ft 355 kts 356°
2026-05-07 03:03 45.99646 -122.68412 15781 ft 358 kts 356°
2026-05-07 03:04 46.02171 -122.68234 16173 ft 360 kts 356°
2026-05-07 03:04 46.04634 -122.68058 16226 ft 359 kts 356°
2026-05-07 03:04 46.07116 -122.67883 16222 ft 357 kts 356°
2026-05-07 03:04 46.09601 -122.67710 16225 ft 356 kts 356°
2026-05-07 03:05 46.12077 -122.67538 16213 ft 356 kts 356°
2026-05-07 03:05 46.14552 -122.67365 16219 ft 357 kts 356°
2026-05-07 03:05 46.17029 -122.67193 16217 ft 356 kts 356°
2026-05-07 03:05 46.19517 -122.67017 16242 ft 357 kts 356°
2026-05-07 03:06 46.21993 -122.66842 16219 ft 356 kts 356°
2026-05-07 03:06 46.24470 -122.66668 16216 ft 357 kts 356°
2026-05-07 03:06 46.26946 -122.66493 16215 ft 356 kts 356°
2026-05-07 03:06 46.29422 -122.66318 16230 ft 356 kts 356°
2026-05-07 03:07 46.31895 -122.66144 16222 ft 356 kts 356°
2026-05-07 03:07 46.34373 -122.65968 16224 ft 356 kts 356°
2026-05-07 03:07 46.36843 -122.65870 16216 ft 351 kts 350°
2026-05-07 03:07 46.39233 -122.66381 16225 ft 346 kts 342°
2026-05-07 03:08 46.41586 -122.67139 16126 ft 347 kts 342°
2026-05-07 03:08 46.43965 -122.67760 15880 ft 348 kts 346°
2026-05-07 03:08 46.46373 -122.68117 15664 ft 347 kts 349°
2026-05-07 03:08 46.48760 -122.68451 15424 ft 346 kts 347°
2026-05-07 03:09 46.51155 -122.68902 15177 ft 344 kts 346°
2026-05-07 03:09 46.53487 -122.69368 14930 ft 343 kts 346°
2026-05-07 03:09 46.55854 -122.69798 14696 ft 343 kts 347°
2026-05-07 03:09 46.58217 -122.70208 14390 ft 342 kts 347°
2026-05-07 03:10 46.60578 -122.70632 14091 ft 340 kts 347°
2026-05-07 03:10 46.62921 -122.71064 13756 ft 339 kts 347°
2026-05-07 03:10 46.65257 -122.71491 13422 ft 337 kts 347°
2026-05-07 03:10 46.67582 -122.71912 13085 ft 336 kts 347°
2026-05-07 03:11 46.69899 -122.72334 12768 ft 335 kts 347°
2026-05-07 03:11 46.72214 -122.72756 12418 ft 335 kts 348°
2026-05-07 03:11 46.74515 -122.73174 12225 ft 331 kts 348°
2026-05-07 03:11 46.76809 -122.73585 12205 ft 334 kts 350°
2026-05-07 03:12 46.79114 -122.73400 12203 ft 330 kts
2026-05-07 03:12 46.81251 -122.72181 12169 ft 337 kts 25°
2026-05-07 03:12 46.83116 -122.70042 11826 ft 346 kts 41°
2026-05-07 03:12 46.84690 -122.67422 11286 ft 339 kts 44°
2026-05-07 03:13 46.86261 -122.64996 10717 ft 320 kts 41°
2026-05-07 03:13 46.87800 -122.62857 10310 ft 294 kts 34°
2026-05-07 03:13 46.89443 -122.61046 10194 ft 296 kts 30°
2026-05-07 03:13 46.91091 -122.59303 10197 ft 296 kts 31°
2026-05-07 03:14 46.92282 -122.57957 10194 ft 0 kts 33°
2026-05-07 03:14 46.95552 -122.55353 10165 ft 279 kts 13°
2026-05-07 03:15 46.97414 -122.54547 10174 ft 278 kts
2026-05-07 03:15 46.99284 -122.53813 10169 ft 279 kts 10°
2026-05-07 03:15 47.01150 -122.53011 10172 ft 279 kts 11°
2026-05-07 03:15 47.03060 -122.52159 10186 ft 293 kts 11°
2026-05-07 03:16 47.05009 -122.51298 10187 ft 292 kts 11°
2026-05-07 03:16 47.06962 -122.50445 10189 ft 293 kts 12°
2026-05-07 03:16 47.08768 -122.49010 10181 ft 302 kts 34°
2026-05-07 03:16 47.10308 -122.46872 10173 ft 306 kts 39°
2026-05-07 03:17 47.11803 -122.44736 10186 ft 299 kts 44°
2026-05-07 03:17 47.12963 -122.42367 10172 ft 269 kts 44°
2026-05-07 03:17 47.14304 -122.40746 10039 ft 240 kts 20°
2026-05-07 03:17 47.15865 -122.39915 9628 ft 238 kts 10°
2026-05-07 03:18 47.17439 -122.39127 9231 ft 241 kts 17°
2026-05-07 03:18 47.18920 -122.37944 8830 ft 243 kts 27°
2026-05-07 03:18 47.20323 -122.36559 8081 ft 240 kts 28°
2026-05-07 03:18 47.21706 -122.35225 7100 ft 236 kts 27°
2026-05-07 03:19 47.23099 -122.33957 6012 ft 236 kts 28°
2026-05-07 03:19 47.24502 -122.32690 4962 ft 239 kts 30°
2026-05-07 03:19 47.26036 -122.31812 4289 ft 239 kts
2026-05-07 03:19 47.27662 -122.31773 4218 ft 234 kts 354°
2026-05-07 03:20 47.29307 -122.31918 4213 ft 236 kts 355°
2026-05-07 03:20 47.30945 -122.31956 3754 ft 230 kts 359°
2026-05-07 03:20 47.32521 -122.31912 3235 ft 226 kts 360°
2026-05-07 03:20 47.34081 -122.31883 2681 ft 221 kts 359°
2026-05-07 03:21 47.35592 -122.31866 2533 ft 218 kts 359°
2026-05-07 03:21 47.37146 -122.31840 2649 ft 224 kts 359°
2026-05-07 03:21 47.38704 -122.31800 2712 ft 223 kts 359°
2026-05-07 03:21 47.40204 -122.31746 2250 ft 213 kts 359°
2026-05-07 03:22 47.41672 -122.31778 1203 ft 210 kts 355°
2026-05-07 03:22 47.43059 -122.31834 736 ft 183 kts 358°
2026-05-07 03:22 47.44268 -122.31803 401 ft 161 kts 359°
2026-05-07 03:22 47.45186 -122.31815 392 ft 102 kts 358°
2026-05-07 03:23 47.45730 -122.31777 391 ft 57 kts 10°
2026-05-07 03:23 47.45993 -122.31556 395 ft 38 kts 65°
2026-05-07 03:23 47.46013 -122.31258 395 ft 25 kts 89°
2026-05-07 03:23 47.46013 -122.31013 395 ft 23 kts 90°
2026-05-07 03:24 47.46010 -122.30775 391 ft 23 kts 91°
2026-05-07 03:24 47.45955 -122.30620 395 ft 11 kts 160°
2026-05-07 03:24 47.45881 -122.30619 393 ft 11 kts 180°
2026-05-07 03:24 47.45779 -122.30619 394 ft 32 kts 180°
2026-05-07 03:25 47.45410 -122.30625 393 ft 56 kts 180°
2026-05-07 03:25 47.45086 -122.30546 392 ft 32 kts 143°
2026-05-07 03:25 47.44978 -122.30393 389 ft 2 kts 143°